Location: Namasale
(1.5000°N, 32.6167°E)
Time: 19:47:53
(UTC+00:00)

Vanguard 1 Rocket - Pass Details

Date: 26 April 2021
Orbit: 652 x 4224 km, 34.3° (Epoch: 10 May)

Event Time Altitude Azimuth Distance (km) Brightness Sun altitude
Rises 02:29:32 0° 223° (SW) 8,177 - -18.5°
Exits shadow 02:31:41 - 220° (SW) 7,908 11.7 -18.0°
Reaches altitude 10° 02:36:06 10° 214° (SW) 7,355 11.6 -16.9°
Maximum altitude 02:59:24 38° 153° (SSE) 5,015 11.2 -11.3°
Drops below altitude 10° 03:16:34 10° 91° (E) 5,650 13.0 -7.1°
Sets 03:20:36 0° 83° (E) 6,225 14.2 -6.2°
